Wind_Speed
16 15 15 14 15 15 16 17 17 17 17 17 18 18 18 19 21 22 23 23 23 23 24 24 24 23 23 22 21 20 19 19 19 19 19 19 20 21 22 22 22 23 23 23
17 16 15 14 15 15 15 16 16 16 16 16 17 18 19 20 21 22 23 23 23 23 24 23 23 22 21 21 20 19 19 18 17 17 17 18 18 19 19 19 20 21 21 22
16 15 15 15 15 15 15 15 16 16 16 17 18 19 20 21 22 23 22 22 22 22 22 22 21 20 19 18 17 17 16 16 16 16 16 16 17 17 16 16 17 18 18 18
15 14 14 13 14 14 13 14 16 16 17 17 18 19 20 21 22 22 22 21 21 20 21 20 19 18 18 17 15 15 15 14 14 15 15 15 14 14 15 15 16 16 16 16
14 14 13 13 13 13 13 14 15 15 16 17 18 19 20 21 21 21 20 20 19 19 19 18 17 16 15 14 13 13 12 12 13 13 13 13 13 12 12 12 12 12 13 14
14 13 13 12 13 13 13 13 14 15 16 17 18 19 20 20 20 19 18 18 18 18 16 15 14 14 12 12 11 11 10 10 10 10 11 11 11 11 11 11 10 11 11 12
13 13 13 12 12 12 12 12 13 14 15 17 18 18 18 18 18 17 17 17 17 16 14 12 12 11 10 9 9 9 8 8 8 8 8 8 8 8 9 9 9 9 9 10
13 13 12 12 12 11 11 12 12 14 15 16 16 16 17 16 16 16 15 15 14 12 11 10 9 9 8 8 8 7 7 7 7 6 6 6 6 7 7 7 7 8 8 8
12 12 12 12 12 12 12 12 13 14 15 15 16 16 16 15 14 13 13 12 11 10 9 8 7 6 6 6 5 5 4 4 4 5 4 4 3 3 3 3 4 4 4 5
10 10 11 11 10 10 11 11 12 13 14 14 15 14 13 13 12 11 11 10 9 9 8 6 5 5 4 4 4 4 4 3 3 2 2 1 1 1 1 2 1 1 1 2
9 9 9 9 9 9 9 10 11 12 12 12 12 12 11 11 10 10 10 9 8 7 6 5 5 5 5 4 4 5 5 5 5 4 4 4 4 4 3 3 3 2 3 3
9 9 9 8 8 7 8 9 10 10 10 10 10 10 9 9 9 9 8 7 7 6 6 6 6 6 6 6 7 7 7 7 7 7 7 7 7 6 6 6 5 5 5 5
9 8 8 7 6 6 7 7 7 8 8 8 8 8 7 7 7 8 7 7 7 7 6 6 7 7 8 8 9 9 9 9 9 9 9 8 9 8 8 8 8 8 7 7
9 8 7 7 6 5 5 6 6 6 6 6 6 6 6 6 7 8 8 8 8 8 8 7 8 8 9 10 10 11 12 11 11 11 11 11 10 10 10 10 10 9 9 9
8 7 7 6 5 4 3 4 4 4 5 4 5 5 5 6 7 8 8 9 9 9 9 9 9 9 10 11 12 12 13 13 13 13 13 12 12 12 12 11 11 11 11 11
8 7 6 5 4 3 2 2 2 3 3 4 4 5 6 6 7 8 9 9 9 10 10 10 11 11 12 12 13 13 14 14 14 14 14 14 14 14 13 13 13 12 12 12
8 7 7 6 4 3 1 0 2 3 4 5 5 6 7 7 8 9 9 10 10 11 12 12 13 13 14 14 14 14 15 15 15 15 15 15 15 15 15 15 14 14 14 14
10 9 8 7 5 4 2 2 3 4 4 5 6 7 7 8 9 9 10 11 12 13 13 14 14 14 15 15 15 15 15 15 15 15 16 16 16 16 16 16 16 16 16 15
11 10 9 8 6 5 4 3 3 4 5 6 6 7 8 8 9 10 11 12 12 13 14 14 15 15 16 16 16 16 16 16 16 16 17 17 17 17 17 16 16 16 16 16
13 11 10 8 7 7 6 5 5 6 6 6 7 7 8 8 9 10 11 11 12 12 13 14 14 15 16 16 16 16 17 16 16 16 16 17 16 16 16 16 16 16 16 16
14 13 11 10 9 8 7 7 7 7 7 7 7 7 8 8 9 10 11 11 12 12 13 14 14 15 15 16 16 16 16 16 16 16 16 16 16 15 15 15 15 15 15 15
16 15 14 12 11 10 9 9 8 8 8 8 8 8 8 8 9 10 11 11 12 12 13 14 14 15 15 16 16 16 16 15 15 15 15 15 15 15 14 14 14 14 14 14
18 17 16 15 13 12 11 11 10 9 9 8 8 8 9 9 9 10 11 11 12 12 13 13 14 14 14 14 15 15 15 15 15 14 14 14 14 14 14 14 14 14 14 14
20 19 18 17 16 14 14 13 12 11 10 9 9 9 10 10 10 11 11 11 11 11 12 12 12 13 13 13 13 14 13 13 13 13 13 13 13 13 13 14 14 14 13 13
23 22 21 20 18 16 16 15 14 12 12 11 10 10 10 10 10 10 10 10 10 10 10 11 11 11 11 11 12 12 12 12 12 12 12 12 12 12 12 12 12 12 12 12
25 25 24 22 20 19 18 17 16 14 13 12 12 11 11 10 10 9 9 9 9 9 9 9 9 10 10 10 10 10 11 10 10 10 11 11 11 11 11 11 11 11 11 11
28 27 26 24 23 21 20 19 18 17 15 14 14 13 12 11 10 9 8 8 8 8 8 8 8 8 8 8 8 8 9 9 9 9 9 9 9 10 10 10 10 11 11 11
Wind_Direction
260 265 267 270 274 275 278 283 288 293 297 302 303 301 300 300 300 301 300 302 302 300 299 297 297 296 294 290 289 287 284 281 274 267 264 262 261 258 258 257 255 255 256 255
261 265 270 273 275 276 278 282 290 294 297 300 303 302 301 301 302 303 302 302 302 300 301 300 299 297 295 291 288 285 282 277 271 265 264 263 261 260 259 256 254 255 255 257
261 265 269 271 275 278 281 284 289 294 297 299 300 303 305 304 303 305 304 302 302 301 302 302 300 298 296 295 289 285 280 274 270 267 267 266 264 260 259 256 255 256 256 257
258 262 268 272 273 277 281 286 291 293 294 297 300 303 305 306 306 306 306 306 305 303 303 302 301 299 299 296 292 287 281 275 274 270 269 270 267 264 259 255 255 256 256 257
258 263 267 271 274 277 280 287 291 294 295 298 302 304 307 308 309 308 307 306 306 306 305 303 303 300 298 297 294 290 283 278 275 269 269 269 268 265 264 261 257 256 259 258
258 263 264 267 271 277 281 287 292 294 297 301 305 307 309 310 310 309 307 307 308 308 306 305 306 305 301 299 299 293 283 282 281 275 273 272 271 267 266 266 263 264 263 261
258 260 262 268 272 278 283 289 290 295 300 304 307 310 312 312 313 313 313 311 312 311 310 309 308 308 305 305 304 297 285 284 285 284 279 275 273 268 268 268 268 268 267 267
254 257 261 266 271 276 283 288 293 299 304 307 309 312 312 313 316 318 318 319 319 318 316 313 312 312 311 310 309 303 293 288 289 292 288 282 277 274 274 277 274 273 275 276
252 258 261 264 269 274 279 286 295 301 307 311 312 313 314 318 322 325 327 329 328 328 327 323 323 326 326 324 328 325 318 309 304 304 300 294 289 292 293 292 286 281 280 282
251 257 261 267 272 275 277 284 293 301 308 314 316 318 320 326 331 332 336 340 342 344 347 349 350 351 353 357 7 12 12 10 359 347 351 2 11 10 6 357 345 318 304 309
241 252 262 270 271 271 277 285 293 305 311 317 323 324 325 331 337 341 346 352 358 5 7 13 24 30 33 36 36 37 41 48 50 56 64 63 60 60 62 57 52 44 30 23
242 249 256 263 265 267 280 290 295 306 315 318 326 328 331 341 349 355 2 11 18 24 29 35 44 51 57 58 55 53 58 68 73 72 70 69 68 70 71 68 64 58 54 50
238 244 248 247 257 273 288 297 301 311 318 325 333 338 346 358 8 16 24 28 32 37 42 49 57 62 63 66 68 68 70 72 72 71 73 75 75 75 76 73 69 64 63 60
233 235 237 239 251 274 288 297 307 317 326 334 343 353 5 16 26 33 37 41 46 49 56 62 66 68 71 73 74 74 75 76 76 75 77 77 77 75 73 70 68 66 64 60
220 223 224 232 247 265 294 304 314 328 341 352 4 16 28 36 41 46 49 53 58 62 67 71 73 74 75 78 79 78 77 77 77 77 77 77 75 73 71 70 69 67 65 62
211 211 213 224 239 249 277 322 353 11 18 26 32 43 49 53 55 57 59 62 68 72 75 79 80 79 79 80 81 80 79 78 78 77 76 75 73 71 71 70 69 67 65 62
205 208 214 216 217 220 223 54 68 60 55 60 63 63 64 65 66 67 69 72 76 79 81 82 82 83 83 82 82 82 82 81 82 80 77 75 74 73 71 70 68 67 66 64
207 210 211 206 204 199 183 137 106 83 73 73 74 75 75 74 74 75 77 80 82 83 82 82 83 85 85 84 83 83 83 82 82 81 79 77 75 73 71 70 69 68 66 64
207 207 203 199 198 195 180 149 121 105 95 90 87 89 88 83 82 83 84 86 86 85 84 83 84 86 86 86 85 84 83 82 82 82 81 79 76 73 70 69 68 67 65 63
202 202 199 195 189 180 168 154 139 127 115 104 102 103 100 94 91 91 91 91 89 87 86 87 88 88 88 87 85 84 83 83 82 80 79 77 75 72 69 67 66 64 62 60
201 199 196 192 183 177 169 159 147 137 126 116 112 111 109 104 101 100 98 96 93 91 89 89 90 90 90 88 86 84 83 82 80 79 76 74 72 69 67 65 62 60 59 57
200 198 196 192 185 180 174 166 158 148 137 128 122 120 116 112 110 109 105 102 99 96 94 93 93 93 92 89 87 84 83 81 79 78 75 73 70 67 65 63 61 59 57 55
203 200 196 192 186 182 177 171 165 159 150 141 133 128 123 120 118 115 112 109 105 102 99 98 97 95 92 89 87 85 83 80 78 75 73 70 68 65 63 60 59 57 55 52
204 200 197 192 188 184 180 177 172 168 161 152 144 138 133 128 124 121 118 115 111 108 105 103 100 97 94 91 87 84 82 79 77 74 71 68 65 62 59 57 55 53 51 49
205 202 198 195 193 189 185 183 180 176 171 165 159 152 145 138 132 128 123 119 116 113 109 105 102 98 95 91 87 83 80 77 74 70 67 64 60 57 54 51 49 47 45 43
206 203 201 198 196 194 190 186 185 182 179 175 171 166 159 152 145 139 133 126 121 117 113 108 104 99 95 91 87 83 79 75 70 65 61 58 54 51 47 44 41 38 36 34
206 204 202 200 199 198 195 191 190 188 186 184 180 176 171 166 160 155 149 141 134 128 122 116 110 103 96 91 85 81 76 70 64 58 53 49 46 42 39 35 31 27 24 21
Height
5769 5769 5769 5770 5770 5770 5770 5769 5768 5767 5766 5765 5762 5760 5758 5755 5753 5750 5747 5744 5740 5737 5734 5732 5729 5727 5725 5723 5721 5719 5718 5717 5716 5716 5716 5716 5717 5717 5718 5718 5719 5720 5721 5723
5764 5765 5765 5766 5766 5766 5766 5765 5764 5763 5762 5760 5758 5756 5753 5750 5747 5744 5741 5738 5735 5731 5728 5726 5723 5721 5719 5717 5715 5713 5712 5711 5711 5711 5711 5711 5711 5712 5712 5713 5714 5715 5716 5717
5760 5761 5762 5763 5763 5762 5761 5761 5760 5759 5758 5756 5754 5751 5748 5745 5742 5739 5735 5732 5729 5726 5723 5720 5717 5715 5713 5711 5710 5709 5707 5707 5706 5706 5707 5707 5707 5707 5707 5708 5709 5709 5710 5711
5756 5758 5758 5761 5759 5758 5758 5757 5756 5755 5753 5752 5749 5747 5744 5740 5737 5733 5730 5726 5723 5720 5718 5715 5712 5710 5708 5707 5705 5704 5703 5703 5702 5702 5702 5702 5703 5703 5703 5703 5704 5705 5705 5706
5753 5753 5755 5756 5755 5755 5754 5754 5752 5751 5749 5747 5745 5742 5739 5735 5732 5728 5725 5722 5719 5716 5713 5710 5708 5706 5704 5703 5701 5701 5700 5699 5698 5698 5698 5698 5699 5699 5699 5699 5700 5700 5701 5702
5749 5750 5751 5753 5752 5751 5752 5751 5749 5747 5745 5743 5741 5738 5735 5731 5727 5724 5720 5717 5714 5712 5709 5707 5705 5703 5701 5700 5699 5698 5697 5696 5696 5696 5695 5695 5695 5696 5696 5696 5697 5697 5698 5699
5746 5747 5748 5749 5749 5749 5749 5749 5746 5744 5742 5740 5737 5734 5731 5727 5723 5720 5716 5713 5711 5708 5706 5704 5702 5700 5699 5697 5696 5695 5695 5694 5694 5693 5693 5693 5693 5693 5694 5694 5694 5695 5695 5696
5743 5744 5747 5745 5745 5746 5745 5744 5742 5741 5739 5736 5733 5730 5727 5723 5719 5716 5713 5710 5707 5705 5703 5701 5699 5698 5697 5696 5695 5694 5693 5692 5692 5691 5691 5691 5691 5691 5692 5692 5692 5693 5693 5694
5741 5743 5743 5742 5742 5742 5741 5741 5739 5737 5735 5733 5730 5727 5723 5720 5717 5713 5711 5708 5705 5703 5701 5699 5698 5697 5696 5694 5693 5692 5692 5691 5691 5690 5690 5690 5690 5690 5690 5691 5691 5691 5692 5692
5737 5739 5739 5739 5739 5739 5738 5738 5736 5734 5732 5730 5727 5724 5721 5718 5715 5712 5709 5706 5704 5702 5700 5699 5697 5696 5695 5694 5693 5692 5692 5691 5690 5690 5690 5690 5690 5690 5690 5690 5691 5691 5691 5692
5735 5736 5736 5736 5736 5736 5736 5735 5733 5732 5729 5727 5724 5722 5719 5716 5713 5710 5708 5706 5704 5702 5700 5699 5698 5696 5695 5694 5694 5693 5692 5692 5691 5691 5691 5691 5691 5691 5691 5691 5691 5692 5692 5692
5733 5733 5734 5734 5734 5734 5733 5732 5731 5729 5727 5725 5723 5720 5718 5715 5713 5710 5708 5706 5704 5703 5701 5700 5699 5698 5697 5696 5695 5694 5694 5693 5693 5692 5692 5692 5692 5693 5692 5693 5693 5693 5693 5693
5730 5731 5731 5732 5732 5732 5731 5730 5729 5727 5726 5724 5722 5719 5717 5715 5713 5710 5708 5707 5705 5704 5702 5701 5700 5699 5699 5698 5697 5696 5696 5695 5695 5694 5694 5694 5695 5695 5695 5695 5695 5694 5694 5694
5728 5729 5730 5730 5731 5730 5730 5729 5727 5726 5724 5723 5721 5719 5717 5715 5713 5711 5710 5708 5707 5705 5704 5703 5702 5702 5701 5700 5700 5699 5699 5698 5698 5697 5697 5697 5697 5697 5697 5697 5697 5696 5696 5696
5726 5728 5729 5729 5729 5729 5728 5727 5726 5725 5723 5722 5721 5719 5718 5716 5715 5713 5712 5710 5709 5708 5706 5706 5705 5704 5704 5703 5703 5702 5702 5701 5701 5701 5700 5700 5700 5700 5700 5699 5699 5699 5698 5698
5725 5726 5728 5728 5728 5728 5728 5727 5726 5725 5723 5722 5721 5720 5719 5718 5716 5715 5714 5713 5711 5711 5710 5709 5708 5707 5707 5706 5706 5705 5705 5705 5705 5704 5704 5704 5703 5703 5703 5702 5702 5702 5701 5701
5724 5726 5727 5728 5728 5728 5727 5727 5726 5725 5724 5723 5722 5721 5720 5720 5719 5718 5716 5715 5715 5714 5713 5712 5711 5711 5710 5710 5710 5709 5709 5709 5708 5708 5708 5708 5707 5707 5707 5706 5705 5705 5704 5703
5723 5725 5726 5727 5727 5727 5727 5727 5726 5726 5725 5725 5724 5723 5723 5722 5721 5720 5720 5719 5718 5717 5717 5716 5715 5715 5714 5714 5714 5713 5713 5713 5713 5712 5712 5712 5712 5711 5711 5710 5709 5708 5708 5707
5722 5724 5725 5726 5727 5727 5727 5727 5727 5727 5727 5727 5726 5726 5726 5725 5725 5724 5723 5723 5722 5721 5721 5720 5719 5719 5719 5718 5718 5718 5718 5717 5717 5717 5716 5716 5716 5715 5715 5714 5713 5712 5711 5710
5721 5722 5724 5725 5726 5727 5728 5728 5728 5728 5729 5728 5728 5728 5728 5728 5728 5727 5727 5726 5726 5725 5725 5724 5724 5723 5723 5723 5722 5722 5722 5722 5722 5721 5721 5720 5720 5719 5719 5718 5717 5716 5715 5714
5719 5721 5723 5724 5726 5727 5728 5729 5729 5730 5730 5730 5731 5731 5731 5731 5731 5730 5730 5730 5729 5729 5728 5728 5727 5727 5727 5727 5727 5726 5726 5726 5726 5725 5725 5725 5724 5723 5723 5722 5721 5720 5719 5718
5717 5720 5722 5723 5725 5727 5728 5729 5730 5731 5732 5732 5733 5733 5733 5733 5733 5733 5733 5733 5733 5733 5732 5732 5732 5732 5732 5731 5731 5731 5730 5730 5730 5729 5729 5728 5728 5727 5726 5725 5724 5723 5722 5721
5716 5718 5720 5722 5724 5726 5728 5729 5731 5732 5733 5734 5734 5735 5736 5736 5736 5736 5736 5736 5736 5736 5736 5736 5736 5736 5736 5735 5735 5735 5734 5734 5734 5733 5732 5732 5731 5730 5729 5728 5727 5726 5725 5724
5713 5716 5718 5721 5723 5725 5727 5729 5731 5733 5734 5735 5736 5737 5738 5738 5739 5739 5739 5739 5739 5739 5740 5740 5740 5739 5739 5739 5738 5738 5738 5737 5737 5736 5736 5735 5734 5733 5732 5731 5730 5729 5728 5726
5711 5713 5716 5719 5722 5724 5726 5729 5731 5733 5734 5736 5737 5738 5739 5740 5741 5741 5741 5742 5742 5742 5742 5743 5743 5742 5742 5742 5742 5741 5741 5741 5740 5740 5739 5738 5737 5736 5735 5734 5733 5731 5730 5728
5707 5710 5714 5717 5720 5722 5725 5727 5730 5732 5734 5736 5738 5739 5740 5741 5742 5743 5743 5744 5744 5744 5745 5745 5745 5745 5745 5744 5744 5744 5743 5743 5743 5742 5741 5740 5739 5738 5737 5736 5735 5733 5732 5730
5703 5707 5710 5714 5717 5720 5723 5725 5728 5731 5733 5735 5737 5739 5740 5742 5743 5744 5745 5745 5746 5746 5746 5747 5747 5747 5747 5747 5746 5746 5745 5745 5744 5744 5743 5742 5741 5740 5739 5737 5736 5734 5733 5731